Home   Weather   Fort Bragg   Past weeks

Flag for USA Past Weather in Fort Bragg, California, USA — Yesterday and Last 2 Weeks

Now
80 °F

Clear.


Feels Like: 79 °F
Forecast: 57 / 72 °F
Wind: 3 mph from Southwest

Location: Ukiah Municipal

Current Time: Sep 25, 2016 at 8:44:59 PM

Latest Report: Sep 25, 2016 at 7:56 PM


Visibility: 10 mi

Pressure: 29.98 "Hg

Humidity: 19%

Dew Point: 34 °F

Location of Fort BraggLocation

Past Weather in Fort Bragg — Graph

°F

Fort Bragg Temperature Yesterday

Maximum temperature yesterday: 94 °F (at 4:56 PM)
Minimum temperature yesterday: 53 °F (at 4:56 AM)
Average temperature yesterday: 71 °F

High & Low Weather Summary for the Past Weeks

 TemperatureHumidityPressure
High101 °F (Sep 25, 3:56 PM)92% (Sep 12, 3:56 AM)30.16 "Hg (Sep 12, 3:56 AM)
Low44 °F (Sep 23, 6:56 AM)9% (Sep 25, 2:56 PM)29.72 "Hg (Sep 12, 4:56 PM)
Average67 °F51%29.97 "Hg
* Reported Sep 10 6:56 PM — Sep 25 6:56 PM, Fort Bragg, Weather by CustomWeather, © 2016

Note: Actual official high and low records may vary slightly from our data, if they occured in-between our weather recording intervals... More about our weather records

Advertising

Fort Bragg Weather History for the Previous 24 Hours

Scroll right to see more
 ConditionsComfort  
Time TempWeatherWind HumidityBarometerVisibility
6:56 PM
Sun, Sep 25
86 °FSunny.3 mph16%29.97 "Hg10 mi
5:56 PM97 °FSunny.3 mph9%29.96 "Hg10 mi
4:56 PM101 °FSunny.7 mph9%29.94 "Hg10 mi
3:56 PM101 °FSunny.5 mph9%29.96 "Hg10 mi
2:56 PM100 °FSunny.5 mph9%29.98 "Hg10 mi
1:56 PM99 °FSunny.6 mph10%29.99 "Hg10 mi
12:56 PM95 °FSunny.6 mph16%30.01 "Hg10 mi
11:56 AM87 °FSunny.No wind17%30.03 "Hg10 mi
10:56 AM78 °FSunny.No wind31%30.06 "Hg10 mi
9:56 AM70 °FSunny.No wind41%30.08 "Hg10 mi
8:56 AM62 °FSunny.No wind58%30.09 "Hg10 mi
7:56 AM53 °FSunny.No wind80%30.09 "Hg10 mi
6:56 AM51 °FClear.No wind83%30.07 "Hg10 mi
5:56 AM51 °FClear.No wind83%30.06 "Hg10 mi
4:56 AM56 °FClear.3 mph77%30.06 "Hg10 mi
3:56 AM54 °FClear.No wind80%30.06 "Hg10 mi
2:56 AM57 °FClear.No wind78%30.08 "Hg10 mi
1:56 AM57 °FClear.No wind78%30.09 "Hg10 mi
12:56 AM59 °FClear.No wind72%30.08 "Hg10 mi
11:56 PM
Sat, Sep 24
64 °FClear.No wind65%30.09 "Hg10 mi
10:56 PM64 °FClear.No wind63%30.08 "Hg10 mi
9:56 PM70 °FClear.No wind51%30.07 "Hg10 mi
8:56 PM74 °FClear.No wind43%30.06 "Hg10 mi
Weather by CustomWeather, © 2016

See weather overviewHow to use our weather pages